Time,TemperatureF,DewpointF,PressureIn,WindDirection,WindDirectionDegrees,WindSpeedMPH,WindSpeedGustMPH,Humidity,HourlyPrecipIn,Conditions,Clouds,dailyrainin,SoftwareType,DateUTC
2013-10-17 00:01:00,52.5,51.4,29.86,WNW,303,0.0,0.0,96,0.00,,,0.00,meteobridge,2013-10-17 04:01:00,
2013-10-17 00:02:00,52.5,51.4,29.85,WNW,303,0.0,0.9,96,0.00,,,0.00,meteobridge,2013-10-17 04:02:00,
2013-10-17 00:03:00,52.5,51.4,29.85,NW,304,0.0,0.0,96,0.00,,,0.00,meteobridge,2013-10-17 04:03:00,
2013-10-17 00:08:00,52.5,51.4,29.86,WNW,303,0.0,0.0,96,0.00,,,0.00,meteobridge,2013-10-17 04:08:00,
2013-10-17 00:13:00,52.5,51.1,29.85,WNW,303,0.0,0.9,95,0.00,,,0.00,meteobridge,2013-10-17 04:13:00,
2013-10-17 00:18:00,52.9,51.4,29.85,WNW,303,0.0,0.0,95,0.00,,,0.00,meteobridge,2013-10-17 04:18:00,
2013-10-17 00:23:00,52.9,51.4,29.85,WNW,303,0.0,0.0,95,0.00,,,0.00,meteobridge,2013-10-17 04:23:00,
2013-10-17 00:29:00,52.7,51.3,29.85,East,94,0.0,0.9,95,0.00,,,0.00,meteobridge,2013-10-17 04:29:00,
2013-10-17 00:34:00,52.9,51.3,29.85,South,169,0.0,0.9,94,0.00,,,0.00,meteobridge,2013-10-17 04:34:00,
2013-10-17 00:39:00,52.9,51.4,29.85,SSE,168,0.0,0.0,95,0.00,,,0.00,meteobridge,2013-10-17 04:39:00,
2013-10-17 00:44:00,53.1,51.6,29.85,SSE,168,0.0,0.0,95,0.00,,,0.00,meteobridge,2013-10-17 04:44:00,
2013-10-17 00:49:00,53.1,51.6,29.84,SSE,168,0.0,0.0,95,0.00,,,0.00,meteobridge,2013-10-17 04:49:00,
2013-10-17 00:55:00,53.1,51.6,29.85,SSE,168,0.0,0.0,95,0.00,,,0.00,meteobridge,2013-10-17 04:55:00,
2013-10-17 01:00:00,53.1,51.6,29.84,SSE,168,0.0,0.0,95,0.00,,,0.00,meteobridge,2013-10-17 05:00:00,
2013-10-17 01:05:00,53.1,51.4,29.84,SE,139,0.0,0.0,94,0.00,,,0.00,meteobridge,2013-10-17 05:05:00,
2013-10-17 01:10:00,53.1,51.4,29.84,SE,139,0.0,0.0,94,0.00,,,0.00,meteobridge,2013-10-17 05:10:00,
2013-10-17 01:15:00,53.1,51.4,29.84,SE,139,0.0,0.0,94,0.00,,,0.00,meteobridge,2013-10-17 05:15:00,
2013-10-17 01:21:00,53.2,51.8,29.84,SE,140,0.0,0.9,95,0.00,,,0.00,meteobridge,2013-10-17 05:21:00,
2013-10-17 01:26:00,53.2,51.6,29.84,SE,140,0.0,0.0,94,0.00,,,0.00,meteobridge,2013-10-17 05:26:00,
2013-10-17 01:31:00,53.2,51.6,29.84,SE,140,0.0,0.0,94,0.00,,,0.00,meteobridge,2013-10-17 05:31:00,
2013-10-17 01:36:00,53.2,51.6,29.84,SE,140,0.0,0.0,94,0.00,,,0.00,meteobridge,2013-10-17 05:36:00,
2013-10-17 01:41:00,53.2,51.3,29.83,SE,140,0.0,0.0,93,0.00,,,0.00,meteobridge,2013-10-17 05:41:00,
2013-10-17 01:47:00,53.2,50.7,29.84,SE,141,0.0,0.9,91,0.00,,,0.00,meteobridge,2013-10-17 05:47:00,
2013-10-17 01:52:00,53.4,50.0,29.84,WNW,284,0.0,0.0,88,0.00,,,0.00,meteobridge,2013-10-17 05:52:00,
2013-10-17 01:57:00,53.6,50.2,29.83,WSW,256,0.0,0.9,88,0.00,,,0.00,meteobridge,2013-10-17 05:57:00,
2013-10-17 02:02:00,53.6,50.7,29.83,WSW,256,0.0,0.0,90,0.00,,,0.00,meteobridge,2013-10-17 06:02:00,
2013-10-17 02:07:00,53.6,51.1,29.83,WSW,256,0.0,0.0,91,0.00,,,0.00,meteobridge,2013-10-17 06:07:00,
2013-10-17 02:12:00,53.4,50.9,29.83,WSW,257,0.0,0.0,91,0.00,,,0.00,meteobridge,2013-10-17 06:12:00,
2013-10-17 02:17:00,53.2,50.4,29.84,WNW,290,2.9,2.9,90,0.00,,,0.00,meteobridge,2013-10-17 06:17:00,
2013-10-17 02:22:00,53.8,50.9,29.84,WNW,299,0.9,2.0,90,0.00,,,0.00,meteobridge,2013-10-17 06:22:00,
2013-10-17 02:27:00,53.8,50.9,29.83,WNW,299,0.0,0.9,90,0.00,,,0.00,meteobridge,2013-10-17 06:27:00,
2013-10-17 02:32:00,54.0,50.7,29.83,NW,311,0.9,2.0,89,0.00,,,0.00,meteobridge,2013-10-17 06:32:00,
2013-10-17 02:37:00,54.0,50.5,29.83,East,80,0.0,0.9,88,0.00,,,0.00,meteobridge,2013-10-17 06:37:00,
2013-10-17 02:43:00,53.8,50.4,29.83,East,80,0.0,0.0,88,0.00,,,0.00,meteobridge,2013-10-17 06:43:00,
2013-10-17 02:48:00,53.8,50.4,29.83,East,80,0.0,0.0,88,0.00,,,0.00,meteobridge,2013-10-17 06:48:00,
2013-10-17 02:53:00,53.8,50.5,29.83,East,80,0.0,0.0,89,0.00,,,0.00,meteobridge,2013-10-17 06:53:00,
2013-10-17 02:58:00,53.6,50.2,29.83,East,80,0.0,0.0,88,0.00,,,0.00,meteobridge,2013-10-17 06:58:00,
2013-10-17 03:03:00,53.6,50.4,29.82,East,80,0.9,0.9,89,0.00,,,0.00,meteobridge,2013-10-17 07:03:00,
2013-10-17 03:08:00,53.4,50.0,29.82,East,80,0.0,0.9,88,0.00,,,0.00,meteobridge,2013-10-17 07:08:00,
2013-10-17 03:13:00,53.2,49.8,29.81,East,80,0.0,0.0,88,0.00,,,0.00,meteobridge,2013-10-17 07:13:00,
2013-10-17 03:19:00,53.1,49.6,29.81,ESE,115,0.9,0.9,88,0.00,,,0.00,meteobridge,2013-10-17 07:19:00,
2013-10-17 03:24:00,53.1,49.8,29.81,ESE,115,0.0,0.0,89,0.00,,,0.00,meteobridge,2013-10-17 07:24:00,
2013-10-17 03:29:00,52.9,49.6,29.80,ESE,115,0.0,0.0,89,0.00,,,0.00,meteobridge,2013-10-17 07:29:00,
2013-10-17 03:34:00,52.9,49.6,29.80,ESE,115,0.0,0.0,89,0.00,,,0.00,meteobridge,2013-10-17 07:34:00,
2013-10-17 03:39:00,52.9,49.6,29.81,ESE,115,0.0,0.9,89,0.00,,,0.00,meteobridge,2013-10-17 07:39:00,
2013-10-17 03:45:00,52.9,49.6,29.81,ESE,115,0.0,0.9,89,0.00,,,0.00,meteobridge,2013-10-17 07:45:00,
2013-10-17 03:50:00,52.9,50.0,29.81,ESE,115,0.0,0.0,90,0.00,,,0.00,meteobridge,2013-10-17 07:50:00,
2013-10-17 03:55:00,52.9,50.0,29.80,ESE,115,0.0,0.0,90,0.00,,,0.00,meteobridge,2013-10-17 07:55:00,
2013-10-17 04:00:00,52.7,49.8,29.80,ESE,115,0.0,0.0,90,0.00,,,0.00,meteobridge,2013-10-17 08:00:00,
2013-10-17 04:05:00,52.9,50.0,29.80,ESE,115,0.0,0.0,90,0.00,,,0.00,meteobridge,2013-10-17 08:05:00,
2013-10-17 04:10:00,52.7,49.8,29.80,ESE,115,0.0,0.0,90,0.00,,,0.00,meteobridge,2013-10-17 08:10:00,
2013-10-17 04:16:00,52.5,49.6,29.80,ESE,115,0.0,0.0,90,0.00,,,0.00,meteobridge,2013-10-17 08:16:00,
2013-10-17 04:17:00,52.5,49.6,29.80,ESE,115,0.0,0.9,90,0.00,,,0.00,meteobridge,2013-10-17 08:17:00,
2013-10-17 04:22:00,52.5,49.6,29.80,ESE,116,0.9,0.9,90,0.00,,,0.00,meteobridge,2013-10-17 08:22:00,
2013-10-17 04:27:00,52.3,49.8,29.80,ESE,115,0.0,0.9,91,0.00,,,0.00,meteobridge,2013-10-17 08:27:00,
2013-10-17 04:33:00,52.2,49.6,29.80,ESE,116,0.0,0.9,91,0.00,,,0.00,meteobridge,2013-10-17 08:33:00,
2013-10-17 04:38:00,52.2,49.6,29.79,ESE,115,0.0,0.0,91,0.00,,,0.00,meteobridge,2013-10-17 08:38:00,
2013-10-17 04:43:00,52.0,49.6,29.79,ESE,115,0.0,0.0,92,0.00,,,0.00,meteobridge,2013-10-17 08:43:00,
2013-10-17 04:48:00,52.0,49.6,29.79,ESE,115,0.9,0.9,92,0.00,,,0.00,meteobridge,2013-10-17 08:48:00,
2013-10-17 04:53:00,52.0,49.6,29.79,ESE,115,0.0,0.9,92,0.00,,,0.00,meteobridge,2013-10-17 08:53:00,
2013-10-17 04:59:00,51.8,49.8,29.80,ESE,115,0.0,0.9,93,0.00,,,0.00,meteobridge,2013-10-17 08:59:00,
2013-10-17 05:04:00,51.8,49.8,29.79,ESE,115,0.0,0.0,93,0.00,,,0.00,meteobridge,2013-10-17 09:04:00,
2013-10-17 05:09:00,51.6,50.0,29.79,ESE,115,0.0,0.0,94,0.00,,,0.00,meteobridge,2013-10-17 09:09:00,
2013-10-17 05:14:00,51.4,49.8,29.79,ESE,115,0.9,0.9,94,0.00,,,0.00,meteobridge,2013-10-17 09:14:00,
2013-10-17 05:19:00,51.3,49.6,29.79,ESE,115,0.0,0.0,94,0.00,,,0.00,meteobridge,2013-10-17 09:19:00,
2013-10-17 05:25:00,51.4,50.0,29.79,SSW,209,0.0,0.0,95,0.00,,,0.00,meteobridge,2013-10-17 09:25:00,
2013-10-17 05:30:00,51.4,50.0,29.80,WNW,289,2.0,2.9,95,0.00,,,0.00,meteobridge,2013-10-17 09:30:00,
2013-10-17 05:35:00,52.2,50.5,29.80,WNW,297,2.9,2.9,94,0.00,,,0.00,meteobridge,2013-10-17 09:35:00,
2013-10-17 05:40:00,52.3,50.4,29.80,West,275,0.9,2.0,93,0.00,,,0.00,meteobridge,2013-10-17 09:40:00,
2013-10-17 05:45:00,52.3,50.0,29.79,WNW,297,0.0,0.0,92,0.00,,,0.00,meteobridge,2013-10-17 09:45:00,
2013-10-17 05:50:00,52.3,50.4,29.79,WNW,297,0.0,0.0,93,0.00,,,0.00,meteobridge,2013-10-17 09:50:00,
2013-10-17 05:55:00,52.2,50.2,29.79,WNW,298,0.0,0.0,93,0.00,,,0.00,meteobridge,2013-10-17 09:55:00,
2013-10-17 06:00:00,52.0,50.0,29.79,WNW,298,0.0,0.0,93,0.00,,,0.00,meteobridge,2013-10-17 10:00:00,
2013-10-17 06:05:00,51.4,49.5,29.79,WNW,297,0.0,0.9,93,0.00,,,0.00,meteobridge,2013-10-17 10:05:00,
2013-10-17 06:10:00,51.3,49.6,29.80,WNW,298,0.0,0.0,94,0.00,,,0.00,meteobridge,2013-10-17 10:10:00,
2013-10-17 06:15:00,51.1,49.5,29.79,WNW,297,0.0,0.0,94,0.00,,,0.00,meteobridge,2013-10-17 10:15:00,
2013-10-17 06:21:00,51.1,49.6,29.79,WNW,298,0.0,0.0,95,0.00,,,0.00,meteobridge,2013-10-17 10:21:00,
2013-10-17 06:26:00,51.3,49.8,29.80,WNW,298,0.0,0.9,95,0.00,,,0.00,meteobridge,2013-10-17 10:26:00,
2013-10-17 06:31:00,51.3,49.8,29.79,WNW,297,0.0,0.0,95,0.00,,,0.00,meteobridge,2013-10-17 10:31:00,
2013-10-17 06:36:00,51.3,49.6,29.80,WNW,298,0.0,0.0,94,0.00,,,0.00,meteobridge,2013-10-17 10:36:00,
2013-10-17 06:41:00,51.3,49.6,29.80,WNW,298,0.0,0.0,94,0.00,,,0.00,meteobridge,2013-10-17 10:41:00,
2013-10-17 06:46:00,51.3,49.8,29.79,WNW,298,0.0,0.0,95,0.00,,,0.00,meteobridge,2013-10-17 10:46:00,
2013-10-17 06:51:00,51.1,49.5,29.79,WNW,297,0.0,0.9,94,0.00,,,0.00,meteobridge,2013-10-17 10:51:00,
2013-10-17 06:56:00,50.7,49.3,29.78,WNW,298,0.0,0.0,95,0.00,,,0.00,meteobridge,2013-10-17 10:56:00,
2013-10-17 07:01:00,50.5,49.1,29.79,WNW,298,0.0,0.9,95,0.00,,,0.00,meteobridge,2013-10-17 11:01:00,
2013-10-17 07:06:00,50.5,49.1,29.79,WNW,298,0.0,0.9,95,0.00,,,0.00,meteobridge,2013-10-17 11:06:00,
2013-10-17 07:11:00,50.5,49.1,29.79,WNW,298,0.0,0.9,95,0.00,,,0.00,meteobridge,2013-10-17 11:11:00,
2013-10-17 07:17:00,50.7,49.6,29.80,WNW,298,0.0,0.9,96,0.00,,,0.00,meteobridge,2013-10-17 11:17:00,
2013-10-17 07:22:00,50.7,49.3,29.80,WNW,298,0.0,0.0,95,0.00,,,0.00,meteobridge,2013-10-17 11:22:00,
2013-10-17 07:27:00,51.1,49.6,29.80,WNW,298,0.0,0.9,95,0.00,,,0.00,meteobridge,2013-10-17 11:27:00,
2013-10-17 07:32:00,51.3,49.8,29.80,WNW,298,0.9,0.9,95,0.00,,,0.00,meteobridge,2013-10-17 11:32:00,
2013-10-17 07:37:00,51.6,50.2,29.80,WNW,298,0.0,0.0,95,0.00,,,0.00,meteobridge,2013-10-17 11:37:00,
2013-10-17 07:42:00,51.8,50.4,29.80,WNW,295,0.9,0.9,95,0.00,,,0.00,meteobridge,2013-10-17 11:42:00,
2013-10-17 07:48:00,52.0,50.5,29.80,WNW,295,0.0,0.0,95,0.00,,,0.00,meteobridge,2013-10-17 11:48:00,
2013-10-17 07:53:00,52.0,50.4,29.80,WNW,295,0.0,0.0,94,0.00,,,0.00,meteobridge,2013-10-17 11:53:00,
2013-10-17 07:58:00,52.2,50.5,29.80,WNW,295,0.0,0.0,94,0.00,,,0.00,meteobridge,2013-10-17 11:58:00,
2013-10-17 08:03:00,52.2,50.5,29.80,WNW,296,0.0,0.9,94,0.00,,,0.00,meteobridge,2013-10-17 12:03:00,
2013-10-17 08:08:00,52.3,50.7,29.80,WNW,293,0.9,2.0,94,0.00,,,0.00,meteobridge,2013-10-17 12:08:00,
2013-10-17 08:13:00,52.3,50.4,29.80,WNW,293,0.0,0.0,93,0.00,,,0.00,meteobridge,2013-10-17 12:13:00,
2013-10-17 08:18:00,52.5,50.5,29.81,WNW,294,0.0,0.0,93,0.00,,,0.00,meteobridge,2013-10-17 12:18:00,
2013-10-17 08:23:00,52.5,50.5,29.80,WNW,294,0.0,0.9,93,0.00,,,0.00,meteobridge,2013-10-17 12:23:00,
2013-10-17 08:28:00,52.7,50.7,29.80,WNW,294,0.0,0.9,93,0.00,,,0.00,meteobridge,2013-10-17 12:28:00,
2013-10-17 08:34:00,52.9,50.9,29.80,WNW,294,0.0,0.9,93,0.00,,,0.00,meteobridge,2013-10-17 12:34:00,
2013-10-17 08:39:00,52.9,50.9,29.80,WNW,294,0.9,0.9,93,0.00,,,0.00,meteobridge,2013-10-17 12:39:00,
2013-10-17 08:44:00,53.1,50.7,29.80,WNW,294,0.0,0.0,92,0.00,,,0.00,meteobridge,2013-10-17 12:44:00,
2013-10-17 08:49:00,53.1,50.7,29.80,WNW,290,0.0,0.0,92,0.00,,,0.00,meteobridge,2013-10-17 12:49:00,
2013-10-17 08:54:00,53.2,50.9,29.80,WNW,290,0.0,0.0,92,0.00,,,0.00,meteobridge,2013-10-17 12:54:00,
2013-10-17 08:59:00,53.4,50.9,29.80,WNW,290,0.0,0.0,91,0.00,,,0.00,meteobridge,2013-10-17 12:59:00,
2013-10-17 09:04:00,53.6,51.1,29.80,West,277,0.0,0.0,91,0.00,,,0.00,meteobridge,2013-10-17 13:04:00,
2013-10-17 09:09:00,53.6,51.1,29.80,West,269,0.0,0.9,91,0.00,,,0.00,meteobridge,2013-10-17 13:09:00,
2013-10-17 09:14:00,54.0,51.6,29.80,West,269,0.0,0.0,92,0.00,,,0.00,meteobridge,2013-10-17 13:14:00,
2013-10-17 09:19:00,54.1,51.3,29.80,SW,224,0.0,0.9,90,0.00,,,0.00,meteobridge,2013-10-17 13:19:00,
2013-10-17 09:24:00,54.5,51.6,29.80,SW,223,0.0,0.0,90,0.00,,,0.00,meteobridge,2013-10-17 13:24:00,
2013-10-17 09:29:00,54.9,52.0,29.80,SW,224,0.0,0.9,90,0.00,,,0.00,meteobridge,2013-10-17 13:29:00,
2013-10-17 09:34:00,54.9,52.0,29.80,SW,224,0.0,0.0,90,0.00,,,0.00,meteobridge,2013-10-17 13:34:00,
2013-10-17 09:39:00,55.0,51.8,29.79,SW,224,0.0,0.9,89,0.00,,,0.00,meteobridge,2013-10-17 13:39:00,
2013-10-17 09:45:00,55.4,52.2,29.79,South,175,0.0,0.9,89,0.00,,,0.00,meteobridge,2013-10-17 13:45:00,
2013-10-17 09:50:00,55.8,52.5,29.79,South,175,0.0,0.0,89,0.00,,,0.00,meteobridge,2013-10-17 13:50:00,
2013-10-17 09:55:00,56.3,52.9,29.79,South,174,0.0,0.0,88,0.00,,,0.00,meteobridge,2013-10-17 13:55:00,
2013-10-17 10:00:00,57.0,53.2,29.79,South,173,0.0,0.0,87,0.00,,,0.00,meteobridge,2013-10-17 14:00:00,
2013-10-17 10:05:00,57.7,53.6,29.79,South,174,0.0,0.0,86,0.00,,,0.00,meteobridge,2013-10-17 14:05:00,
2013-10-17 10:10:00,57.9,53.4,29.79,South,174,0.0,0.0,85,0.00,,,0.00,meteobridge,2013-10-17 14:10:00,
2013-10-17 10:15:00,57.9,53.4,29.79,West,278,0.0,0.0,85,0.00,,,0.00,meteobridge,2013-10-17 14:15:00,
2013-10-17 10:21:00,57.9,53.8,29.79,West,278,0.0,0.0,86,0.00,,,0.00,meteobridge,2013-10-17 14:21:00,
2013-10-17 10:26:00,59.0,54.1,29.79,West,278,0.0,0.0,84,0.00,,,0.00,meteobridge,2013-10-17 14:26:00,
2013-10-17 10:31:00,59.7,54.1,29.78,ESE,105,0.0,0.0,82,0.00,,,0.00,meteobridge,2013-10-17 14:31:00,
2013-10-17 10:36:00,60.3,54.3,29.78,SSW,212,0.0,0.9,81,0.00,,,0.00,meteobridge,2013-10-17 14:36:00,
2013-10-17 10:41:00,60.4,54.3,29.78,SSW,210,0.0,0.0,80,0.00,,,0.00,meteobridge,2013-10-17 14:41:00,
2013-10-17 10:46:00,61.0,54.7,29.78,SSW,211,0.0,0.0,80,0.00,,,0.00,meteobridge,2013-10-17 14:46:00,
2013-10-17 10:52:00,61.0,54.5,29.78,West,276,0.9,0.9,79,0.00,,,0.00,meteobridge,2013-10-17 14:52:00,
2013-10-17 10:57:00,60.4,54.5,29.78,West,276,0.0,0.0,81,0.00,,,0.00,meteobridge,2013-10-17 14:57:00,
2013-10-17 11:02:00,60.4,54.5,29.77,West,276,0.0,0.0,81,0.00,,,0.00,meteobridge,2013-10-17 15:02:00,
2013-10-17 11:07:00,61.0,55.4,29.77,West,276,0.0,0.0,82,0.00,,,0.00,meteobridge,2013-10-17 15:07:00,
2013-10-17 11:12:00,61.3,55.4,29.77,West,276,0.0,0.0,81,0.00,,,0.00,meteobridge,2013-10-17 15:12:00,
2013-10-17 11:18:00,61.7,55.0,29.77,SE,134,0.0,0.0,79,0.00,,,0.00,meteobridge,2013-10-17 15:18:00,
2013-10-17 11:23:00,62.1,55.4,29.77,SSW,205,0.9,0.9,79,0.00,,,0.00,meteobridge,2013-10-17 15:23:00,
2013-10-17 11:28:00,62.2,54.5,29.76,SW,236,0.0,4.0,76,0.00,,,0.00,meteobridge,2013-10-17 15:28:00,
2013-10-17 11:33:00,62.4,54.3,29.76,WNW,287,2.0,4.0,75,0.00,,,0.00,meteobridge,2013-10-17 15:33:00,
2013-10-17 11:38:00,63.0,54.1,29.76,WSW,249,2.0,8.9,73,0.00,,,0.00,meteobridge,2013-10-17 15:38:00,
2013-10-17 11:43:00,63.1,54.0,29.76,WSW,250,2.0,2.9,72,0.00,,,0.00,meteobridge,2013-10-17 15:43:00,
2013-10-17 11:48:00,63.3,53.4,29.76,SSW,209,2.0,2.0,70,0.00,,,0.00,meteobridge,2013-10-17 15:48:00,
2013-10-17 11:53:00,63.9,53.4,29.76,WNW,283,6.9,8.1,69,0.00,,,0.00,meteobridge,2013-10-17 15:53:00,
2013-10-17 11:58:00,64.0,52.0,29.76,WNW,302,6.0,8.1,65,0.00,,,0.00,meteobridge,2013-10-17 15:58:00,
2013-10-17 12:03:00,64.2,52.7,29.75,WNW,285,8.9,10.1,66,0.00,,,0.00,meteobridge,2013-10-17 16:03:00,
2013-10-17 12:08:00,64.0,53.2,29.75,NW,323,4.0,8.1,68,0.00,,,0.00,meteobridge,2013-10-17 16:08:00,
2013-10-17 12:13:00,63.9,52.7,29.75,WNW,289,6.9,10.1,67,0.00,,,0.00,meteobridge,2013-10-17 16:13:00,
2013-10-17 12:18:00,64.0,52.0,29.75,WNW,292,6.9,11.0,65,0.00,,,0.00,meteobridge,2013-10-17 16:18:00,
2013-10-17 12:23:00,64.2,51.8,29.75,WNW,285,6.9,10.1,64,0.00,,,0.00,meteobridge,2013-10-17 16:23:00,
2013-10-17 12:28:00,64.6,51.6,29.75,WNW,283,8.1,15.0,63,0.00,,,0.00,meteobridge,2013-10-17 16:28:00,
2013-10-17 12:33:00,64.8,51.4,29.75,West,277,8.1,12.1,62,0.00,,,0.00,meteobridge,2013-10-17 16:33:00,
2013-10-17 12:38:00,64.8,51.4,29.75,WNW,290,4.9,8.9,62,0.00,,,0.00,meteobridge,2013-10-17 16:38:00,
2013-10-17 12:43:00,64.9,50.2,29.75,WNW,294,4.9,8.9,59,0.00,,,0.00,meteobridge,2013-10-17 16:43:00,
2013-10-17 12:48:00,64.9,51.1,29.75,WNW,288,4.9,8.1,61,0.00,,,0.00,meteobridge,2013-10-17 16:48:00,
2013-10-17 12:53:00,65.1,51.3,29.75,West,280,4.9,4.9,61,0.00,,,0.00,meteobridge,2013-10-17 16:53:00,
2013-10-17 12:58:00,65.1,50.0,29.74,WNW,286,6.0,8.9,58,0.00,,,0.00,meteobridge,2013-10-17 16:58:00,
2013-10-17 13:03:00,65.3,50.2,29.74,WNW,295,6.0,10.1,58,0.00,,,0.00,meteobridge,2013-10-17 17:03:00,
2013-10-17 13:08:00,65.5,49.3,29.74,WNW,285,8.1,13.0,56,0.00,,,0.00,meteobridge,2013-10-17 17:08:00,
2013-10-17 13:13:00,65.5,49.3,29.74,WNW,284,6.0,8.1,56,0.00,,,0.00,meteobridge,2013-10-17 17:13:00,
2013-10-17 13:18:00,65.7,50.9,29.74,WNW,296,4.0,6.9,59,0.00,,,0.00,meteobridge,2013-10-17 17:18:00,
2013-10-17 13:24:00,65.5,49.8,29.74,West,267,2.9,4.0,57,0.00,,,0.00,meteobridge,2013-10-17 17:24:00,
2013-10-17 13:29:00,65.7,50.0,29.73,WNW,285,6.9,6.9,57,0.00,,,0.00,meteobridge,2013-10-17 17:29:00,
2013-10-17 13:34:00,66.0,49.8,29.73,WNW,283,2.0,8.9,56,0.00,,,0.00,meteobridge,2013-10-17 17:34:00,
2013-10-17 13:39:00,66.2,50.5,29.73,WNW,282,8.9,10.1,57,0.00,,,0.00,meteobridge,2013-10-17 17:39:00,
2013-10-17 13:44:00,66.4,49.3,29.73,WNW,282,4.9,12.1,54,0.00,,,0.00,meteobridge,2013-10-17 17:44:00,
2013-10-17 13:49:00,66.4,52.5,29.73,WNW,288,2.9,8.9,61,0.00,,,0.00,meteobridge,2013-10-17 17:49:00,
2013-10-17 13:54:00,66.6,50.4,29.73,WSW,246,2.0,2.9,56,0.00,,,0.00,meteobridge,2013-10-17 17:54:00,
2013-10-17 13:59:00,66.7,50.5,29.72,West,269,2.0,12.1,56,0.00,,,0.00,meteobridge,2013-10-17 17:59:00,
2013-10-17 14:04:00,66.7,48.6,29.72,West,280,10.1,13.0,52,0.00,,,0.00,meteobridge,2013-10-17 18:04:00,
2013-10-17 14:09:00,66.9,49.8,29.72,WSW,255,2.0,6.0,54,0.00,,,0.00,meteobridge,2013-10-17 18:09:00,
2013-10-17 14:14:00,66.9,50.7,29.72,SSW,205,4.9,6.0,56,0.00,,,0.00,meteobridge,2013-10-17 18:14:00,
2013-10-17 14:19:00,66.9,49.8,29.72,West,281,6.0,13.0,54,0.00,,,0.00,meteobridge,2013-10-17 18:19:00,
2013-10-17 14:24:00,66.9,49.3,29.72,WNW,283,4.9,8.1,53,0.00,,,0.00,meteobridge,2013-10-17 18:24:00,
2013-10-17 14:29:00,66.9,50.7,29.72,SW,214,2.0,6.0,56,0.00,,,0.00,meteobridge,2013-10-17 18:29:00,
2013-10-17 14:34:00,67.1,49.8,29.72,West,280,6.9,12.1,54,0.00,,,0.00,meteobridge,2013-10-17 18:34:00,
2013-10-17 14:39:00,66.9,49.8,29.72,WNW,282,8.1,8.1,54,0.00,,,0.00,meteobridge,2013-10-17 18:39:00,
2013-10-17 14:44:00,67.1,49.5,29.72,West,280,6.0,11.0,53,0.00,,,0.00,meteobridge,2013-10-17 18:44:00,
2013-10-17 14:49:00,67.5,50.2,29.72,SSW,195,0.0,2.0,54,0.00,,,0.00,meteobridge,2013-10-17 18:49:00,
2013-10-17 14:54:00,67.6,49.5,29.72,West,281,6.0,6.0,52,0.00,,,0.00,meteobridge,2013-10-17 18:54:00,
2013-10-17 15:00:00,67.6,49.5,29.72,West,278,4.0,6.0,52,0.00,,,0.00,meteobridge,2013-10-17 19:00:00,
2013-10-17 15:05:00,67.6,48.9,29.72,West,276,6.0,6.0,51,0.00,,,0.00,meteobridge,2013-10-17 19:05:00,
2013-10-17 15:10:00,67.6,49.5,29.72,WNW,282,4.9,8.1,52,0.00,,,0.00,meteobridge,2013-10-17 19:10:00,
2013-10-17 15:15:00,67.8,49.1,29.72,West,278,6.9,8.1,51,0.00,,,0.00,meteobridge,2013-10-17 19:15:00,
2013-10-17 15:20:00,67.8,48.6,29.72,WNW,284,6.9,8.9,50,0.00,,,0.00,meteobridge,2013-10-17 19:20:00,
2013-10-17 15:25:00,68.0,48.7,29.72,West,277,2.0,8.1,50,0.00,,,0.00,meteobridge,2013-10-17 19:25:00,
2013-10-17 15:30:00,68.0,49.3,29.72,WNW,297,4.9,10.1,51,0.00,,,0.00,meteobridge,2013-10-17 19:30:00,
2013-10-17 15:31:00,68.0,48.7,29.72,WNW,293,4.9,6.9,50,0.00,,,0.00,meteobridge,2013-10-17 19:31:00,
2013-10-17 15:36:00,67.8,49.1,29.72,WNW,283,6.0,6.9,51,0.00,,,0.00,meteobridge,2013-10-17 19:36:00,
2013-10-17 15:41:00,67.8,49.6,29.72,WNW,285,4.0,8.1,52,0.00,,,0.00,meteobridge,2013-10-17 19:41:00,
2013-10-17 15:46:00,67.8,48.6,29.72,WNW,289,4.0,6.0,50,0.00,,,0.00,meteobridge,2013-10-17 19:46:00,
2013-10-17 15:51:00,67.6,48.9,29.72,WNW,298,4.0,8.1,51,0.00,,,0.00,meteobridge,2013-10-17 19:51:00,
2013-10-17 15:56:00,67.8,49.1,29.72,WNW,288,2.9,4.0,51,0.00,,,0.00,meteobridge,2013-10-17 19:56:00,
2013-10-17 16:01:00,68.0,50.7,29.72,WNW,285,2.9,6.0,54,0.00,,,0.00,meteobridge,2013-10-17 20:01:00,
2013-10-17 16:06:00,68.2,49.3,29.71,WNW,286,4.0,4.9,51,0.00,,,0.00,meteobridge,2013-10-17 20:06:00,
2013-10-17 16:11:00,67.8,49.6,29.71,WNW,282,4.9,6.9,52,0.00,,,0.00,meteobridge,2013-10-17 20:11:00,
2013-10-17 16:16:00,67.6,48.9,29.71,WNW,290,6.0,8.9,51,0.00,,,0.00,meteobridge,2013-10-17 20:16:00,
2013-10-17 16:21:00,67.8,48.6,29.71,NW,316,2.9,6.0,50,0.00,,,0.00,meteobridge,2013-10-17 20:21:00,
2013-10-17 16:26:00,67.8,48.6,29.71,NW,306,4.9,6.0,50,0.00,,,0.00,meteobridge,2013-10-17 20:26:00,
2013-10-17 16:31:00,67.8,49.1,29.71,NW,321,4.9,8.9,51,0.00,,,0.00,meteobridge,2013-10-17 20:31:00,
2013-10-17 16:36:00,68.2,48.9,29.71,WNW,294,4.9,6.9,50,0.00,,,0.00,meteobridge,2013-10-17 20:36:00,
2013-10-17 16:41:00,67.8,49.1,29.71,WNW,294,8.9,8.9,51,0.00,,,0.00,meteobridge,2013-10-17 20:41:00,
2013-10-17 16:46:00,67.6,48.9,29.71,WNW,285,6.9,10.1,51,0.00,,,0.00,meteobridge,2013-10-17 20:46:00,
2013-10-17 16:51:00,68.0,49.3,29.70,WNW,282,4.9,6.0,51,0.00,,,0.00,meteobridge,2013-10-17 20:51:00,
2013-10-17 16:56:00,67.8,49.6,29.70,WNW,292,4.0,4.9,52,0.00,,,0.00,meteobridge,2013-10-17 20:56:00,
2013-10-17 17:01:00,67.6,49.8,29.71,WNW,289,4.0,6.0,53,0.00,,,0.00,meteobridge,2013-10-17 21:01:00,
2013-10-17 17:06:00,67.5,48.7,29.71,West,271,4.9,8.1,51,0.00,,,0.00,meteobridge,2013-10-17 21:06:00,
2013-10-17 17:11:00,67.3,49.1,29.71,WNW,297,4.9,8.1,52,0.00,,,0.00,meteobridge,2013-10-17 21:11:00,
2013-10-17 17:16:00,67.1,50.4,29.71,WNW,293,4.0,6.0,55,0.00,,,0.00,meteobridge,2013-10-17 21:16:00,
2013-10-17 17:21:00,66.9,50.2,29.71,West,270,4.0,6.0,55,0.00,,,0.00,meteobridge,2013-10-17 21:21:00,
2013-10-17 17:26:00,66.7,50.5,29.71,WNW,287,4.0,4.9,56,0.00,,,0.00,meteobridge,2013-10-17 21:26:00,
2013-10-17 17:31:00,66.7,49.1,29.71,West,276,4.9,6.0,53,0.00,,,0.00,meteobridge,2013-10-17 21:31:00,
2013-10-17 17:36:00,66.7,50.5,29.71,WNW,282,4.0,4.9,56,0.00,,,0.00,meteobridge,2013-10-17 21:36:00,
2013-10-17 17:42:00,66.4,49.6,29.72,WNW,284,4.0,4.9,55,0.00,,,0.00,meteobridge,2013-10-17 21:42:00,
2013-10-17 17:47:00,66.0,50.4,29.72,WNW,287,2.9,2.9,57,0.00,,,0.00,meteobridge,2013-10-17 21:47:00,
2013-10-17 17:52:00,65.7,50.0,29.72,West,274,2.9,4.0,57,0.00,,,0.00,meteobridge,2013-10-17 21:52:00,
2013-10-17 17:57:00,65.1,50.0,29.72,WNW,293,2.0,4.0,58,0.00,,,0.00,meteobridge,2013-10-17 21:57:00,
2013-10-17 18:02:00,64.9,50.2,29.72,WNW,290,2.9,4.0,59,0.00,,,0.00,meteobridge,2013-10-17 22:02:00,
2013-10-17 18:07:00,64.8,49.1,29.72,West,280,2.0,4.0,57,0.00,,,0.00,meteobridge,2013-10-17 22:07:00,
2013-10-17 18:12:00,64.4,50.2,29.72,WNW,284,2.0,2.9,60,0.00,,,0.00,meteobridge,2013-10-17 22:12:00,
2013-10-17 18:17:00,63.9,50.2,29.72,West,281,2.9,2.9,61,0.00,,,0.00,meteobridge,2013-10-17 22:17:00,
2013-10-17 18:22:00,63.7,50.4,29.72,WNW,284,2.9,2.9,62,0.00,,,0.00,meteobridge,2013-10-17 22:22:00,
2013-10-17 18:27:00,63.3,50.5,29.72,WNW,285,2.0,2.9,63,0.00,,,0.00,meteobridge,2013-10-17 22:27:00,
2013-10-17 18:32:00,63.0,50.2,29.72,WNW,285,2.0,4.0,63,0.00,,,0.00,meteobridge,2013-10-17 22:32:00,
2013-10-17 18:37:00,62.4,49.6,29.72,WNW,295,0.9,2.0,63,0.00,,,0.00,meteobridge,2013-10-17 22:37:00,
2013-10-17 18:42:00,62.1,50.2,29.72,WNW,302,2.0,2.0,65,0.00,,,0.00,meteobridge,2013-10-17 22:42:00,
2013-10-17 18:47:00,61.9,49.6,29.72,NW,304,2.0,2.0,64,0.00,,,0.00,meteobridge,2013-10-17 22:47:00,
2013-10-17 18:52:00,61.9,49.6,29.72,NW,304,0.9,2.0,64,0.00,,,0.00,meteobridge,2013-10-17 22:52:00,
2013-10-17 18:58:00,61.5,49.3,29.72,WNW,300,0.0,0.9,64,0.00,,,0.00,meteobridge,2013-10-17 22:58:00,
2013-10-17 19:03:00,61.3,49.1,29.73,North,6,0.0,0.9,64,0.00,,,0.00,meteobridge,2013-10-17 23:03:00,
2013-10-17 19:08:00,61.0,49.1,29.73,North,6,0.0,0.0,65,0.00,,,0.00,meteobridge,2013-10-17 23:08:00,
2013-10-17 19:13:00,60.4,49.5,29.73,ESE,106,0.9,0.9,67,0.00,,,0.00,meteobridge,2013-10-17 23:13:00,
2013-10-17 19:18:00,59.9,50.2,29.72,ESE,121,0.0,0.0,70,0.00,,,0.00,meteobridge,2013-10-17 23:18:00,
2013-10-17 19:23:00,59.7,49.1,29.72,West,266,0.0,0.9,68,0.00,,,0.00,meteobridge,2013-10-17 23:23:00,
2013-10-17 19:29:00,59.5,49.8,29.72,West,266,0.0,0.9,70,0.00,,,0.00,meteobridge,2013-10-17 23:29:00,
2013-10-17 19:34:00,59.4,49.6,29.72,West,266,0.0,0.9,70,0.00,,,0.00,meteobridge,2013-10-17 23:34:00,
2013-10-17 19:39:00,58.6,49.6,29.72,West,266,0.0,0.9,72,0.00,,,0.00,meteobridge,2013-10-17 23:39:00,
2013-10-17 19:44:00,57.9,51.4,29.72,ESE,103,0.9,0.9,79,0.00,,,0.00,meteobridge,2013-10-17 23:44:00,
2013-10-17 19:49:00,57.4,49.1,29.72,ESE,103,0.0,0.9,74,0.00,,,0.00,meteobridge,2013-10-17 23:49:00,
2013-10-17 19:54:00,57.6,51.8,29.72,ESE,103,0.0,0.0,81,0.00,,,0.00,meteobridge,2013-10-17 23:54:00,
2013-10-17 19:59:00,57.4,49.5,29.72,ESE,103,0.0,0.0,75,0.00,,,0.00,meteobridge,2013-10-17 23:59:00,
2013-10-17 20:05:00,57.4,50.5,29.72,ESE,103,0.0,0.0,78,0.00,,,0.00,meteobridge,2013-10-18 00:05:00,
2013-10-17 20:10:00,57.2,51.4,29.72,ESE,103,0.0,0.0,81,0.00,,,0.00,meteobridge,2013-10-18 00:10:00,
2013-10-17 20:15:00,56.7,50.9,29.72,ESE,103,0.0,0.0,81,0.00,,,0.00,meteobridge,2013-10-18 00:15:00,
2013-10-17 20:20:00,56.3,50.5,29.72,ESE,103,0.0,0.9,81,0.00,,,0.00,meteobridge,2013-10-18 00:20:00,
2013-10-17 20:25:00,55.9,51.3,29.72,East,101,0.0,0.9,84,0.00,,,0.00,meteobridge,2013-10-18 00:25:00,
2013-10-17 20:30:00,55.6,51.1,29.72,East,101,0.0,0.9,85,0.00,,,0.00,meteobridge,2013-10-18 00:30:00,
2013-10-17 20:35:00,55.2,50.7,29.71,ESE,102,0.0,0.0,85,0.00,,,0.00,meteobridge,2013-10-18 00:35:00,
2013-10-17 20:40:00,55.0,50.0,29.71,East,101,0.0,0.0,83,0.00,,,0.00,meteobridge,2013-10-18 00:40:00,
2013-10-17 20:45:00,54.9,49.1,29.71,ESE,102,0.0,0.0,81,0.00,,,0.00,meteobridge,2013-10-18 00:45:00,
2013-10-17 20:50:00,54.9,50.7,29.71,ESE,102,0.0,0.0,86,0.00,,,0.00,meteobridge,2013-10-18 00:50:00,
2013-10-17 20:55:00,54.9,51.1,29.71,East,101,0.0,0.0,87,0.00,,,0.00,meteobridge,2013-10-18 00:55:00,
2013-10-17 21:00:00,54.9,50.7,29.71,ESE,102,0.0,0.9,86,0.00,,,0.00,meteobridge,2013-10-18 01:00:00,
2013-10-17 21:05:00,54.9,51.1,29.70,East,101,0.0,0.9,87,0.00,,,0.00,meteobridge,2013-10-18 01:05:00,
2013-10-17 21:11:00,54.9,51.1,29.70,ESE,103,0.9,0.9,87,0.00,,,0.00,meteobridge,2013-10-18 01:11:00,
2013-10-17 21:16:00,54.7,51.4,29.70,ESE,117,0.9,0.9,89,0.00,,,0.00,meteobridge,2013-10-18 01:16:00,
2013-10-17 21:21:00,54.3,51.1,29.71,ESE,117,0.0,0.0,89,0.00,,,0.00,meteobridge,2013-10-18 01:21:00,
2013-10-17 21:26:00,54.3,51.8,29.71,NNW,330,0.0,0.9,91,0.00,,,0.00,meteobridge,2013-10-18 01:26:00,
2013-10-17 21:31:00,54.3,51.4,29.71,NNW,330,0.0,0.0,90,0.00,,,0.00,meteobridge,2013-10-18 01:31:00,
2013-10-17 21:36:00,54.1,51.3,29.71,NNW,330,0.9,0.9,90,0.00,,,0.00,meteobridge,2013-10-18 01:36:00,
2013-10-17 21:42:00,54.0,51.4,29.70,NNW,331,0.0,0.9,91,0.00,,,0.00,meteobridge,2013-10-18 01:42:00,
2013-10-17 21:47:00,54.0,51.1,29.71,NNW,331,0.0,0.9,90,0.00,,,0.00,meteobridge,2013-10-18 01:47:00,
2013-10-17 21:52:00,53.8,51.3,29.70,NNW,331,0.0,0.9,91,0.00,,,0.00,meteobridge,2013-10-18 01:52:00,
2013-10-17 21:57:00,53.6,51.1,29.70,NW,323,0.0,0.9,91,0.00,,,0.00,meteobridge,2013-10-18 01:57:00,
2013-10-17 22:03:00,53.4,50.2,29.70,NW,323,0.0,0.0,89,0.00,,,0.00,meteobridge,2013-10-18 02:03:00,
2013-10-17 22:08:00,53.2,50.4,29.70,NW,323,0.0,0.0,90,0.00,,,0.00,meteobridge,2013-10-18 02:08:00,
2013-10-17 22:13:00,53.2,50.4,29.70,East,88,0.0,0.0,90,0.00,,,0.00,meteobridge,2013-10-18 02:13:00,
2013-10-17 22:18:00,53.1,50.2,29.70,East,88,0.0,0.0,90,0.00,,,0.00,meteobridge,2013-10-18 02:18:00,
2013-10-17 22:23:00,53.1,50.2,29.69,East,88,0.9,0.9,90,0.00,,,0.00,meteobridge,2013-10-18 02:23:00,
2013-10-17 22:28:00,53.1,49.8,29.69,East,88,0.0,0.9,89,0.00,,,0.00,meteobridge,2013-10-18 02:28:00,
2013-10-17 22:33:00,53.1,50.2,29.69,East,88,0.9,0.9,90,0.00,,,0.00,meteobridge,2013-10-18 02:33:00,
2013-10-17 22:39:00,52.9,50.0,29.69,East,83,0.0,0.0,90,0.00,,,0.00,meteobridge,2013-10-18 02:39:00,
2013-10-17 22:44:00,52.9,49.6,29.68,East,83,0.0,0.0,89,0.00,,,0.00,meteobridge,2013-10-18 02:44:00,
2013-10-17 22:49:00,52.9,50.0,29.68,East,83,0.0,0.0,90,0.00,,,0.00,meteobridge,2013-10-18 02:49:00,
2013-10-17 22:54:00,52.9,50.0,29.68,East,83,0.0,0.0,90,0.00,,,0.00,meteobridge,2013-10-18 02:54:00,
2013-10-17 23:00:00,52.9,50.0,29.68,East,83,0.0,0.0,90,0.00,,,0.00,meteobridge,2013-10-18 03:00:00,
2013-10-17 23:05:00,53.1,49.8,29.67,East,83,0.0,0.9,89,0.00,,,0.00,meteobridge,2013-10-18 03:05:00,
2013-10-17 23:10:00,53.1,49.8,29.67,East,83,0.0,0.0,89,0.00,,,0.00,meteobridge,2013-10-18 03:10:00,
2013-10-17 23:15:00,53.1,49.8,29.67,East,83,0.0,0.9,89,0.00,,,0.00,meteobridge,2013-10-18 03:15:00,
2013-10-17 23:20:00,53.2,50.0,29.65,East,83,0.0,0.9,89,0.00,,,0.00,meteobridge,2013-10-18 03:20:00,
2013-10-17 23:25:00,53.2,50.4,29.65,East,83,0.9,0.9,90,0.00,,,0.00,meteobridge,2013-10-18 03:25:00,
2013-10-17 23:30:00,53.2,50.0,29.66,East,83,0.0,0.0,89,0.00,,,0.00,meteobridge,2013-10-18 03:30:00,
2013-10-17 23:36:00,53.2,50.4,29.66,WNW,285,0.9,2.0,90,0.00,,,0.00,meteobridge,2013-10-18 03:36:00,
2013-10-17 23:41:00,53.4,50.2,29.67,West,276,2.0,2.0,89,0.00,,,0.00,meteobridge,2013-10-18 03:41:00,
2013-10-17 23:46:00,53.8,50.0,29.67,WNW,291,2.0,4.0,87,0.00,,,0.00,meteobridge,2013-10-18 03:46:00,
2013-10-17 23:51:00,54.3,51.4,29.68,WNW,291,4.0,4.0,90,0.00,,,0.00,meteobridge,2013-10-18 03:51:00,
2013-10-17 23:56:00,54.5,51.1,29.70,West,278,4.9,6.9,88,0.00,,,0.00,meteobridge,2013-10-18 03:56:00,